Time,TemperatureF,DewpointF,PressureIn,WindDirection,WindDirectionDegrees,WindSpeedMPH,WindSpeedGustMPH,Humidity,HourlyPrecipIn,Conditions,Clouds,dailyrainin,SoftwareType,DateUTC
2013-05-09 00:01:00,54.2,53.0,30.00,SW,225,0.0,-999.0,96,-99.99,,,0.00,weatherlink.com 1.10,2013-05-09 04:01:00,
2013-05-09 00:16:00,53.6,53.0,30.00,SW,225,0.0,-999.0,97,-99.99,,,0.00,weatherlink.com 1.10,2013-05-09 04:16:00,
2013-05-09 00:31:00,53.1,52.0,30.00,SW,225,0.0,-999.0,97,-99.99,,,0.00,weatherlink.com 1.10,2013-05-09 04:31:00,
2013-05-09 00:46:00,52.8,52.0,29.99,SW,225,0.0,-999.0,98,-99.99,,,0.00,weatherlink.com 1.10,2013-05-09 04:46:00,
2013-05-09 01:01:00,52.5,52.0,29.99,SW,225,0.0,-999.0,97,-99.99,,,0.00,weatherlink.com 1.10,2013-05-09 05:01:00,
2013-05-09 01:16:00,52.1,51.0,29.99,SW,225,0.0,-999.0,97,-99.99,,,0.00,weatherlink.com 1.10,2013-05-09 05:16:00,
2013-05-09 01:31:00,51.7,51.0,29.98,SW,225,0.0,-999.0,98,-99.99,,,0.00,weatherlink.com 1.10,2013-05-09 05:31:00,
2013-05-09 01:46:00,51.4,51.0,29.97,SW,225,0.0,-999.0,98,-99.99,,,0.00,weatherlink.com 1.10,2013-05-09 05:46:00,
2013-05-09 02:01:00,51.0,51.0,29.97,SW,225,0.0,-999.0,98,-99.99,,,0.00,weatherlink.com 1.10,2013-05-09 06:01:00,
2013-05-09 02:16:00,50.9,50.0,29.97,SW,225,0.0,-999.0,98,-99.99,,,0.00,weatherlink.com 1.10,2013-05-09 06:16:00,
2013-05-09 02:31:00,50.9,51.0,29.96,SW,225,0.0,-999.0,99,-99.99,,,0.00,weatherlink.com 1.10,2013-05-09 06:31:00,
2013-05-09 02:46:00,51.2,51.0,29.96,SW,225,0.0,-999.0,99,-99.99,,,0.00,weatherlink.com 1.10,2013-05-09 06:46:00,
2013-05-09 03:01:00,51.6,51.0,29.96,SW,225,0.0,-999.0,99,-99.99,,,0.00,weatherlink.com 1.10,2013-05-09 07:01:00,
2013-05-09 03:16:00,52.0,52.0,29.95,SW,225,0.0,-999.0,99,-99.99,,,0.00,weatherlink.com 1.10,2013-05-09 07:16:00,
2013-05-09 03:31:00,52.4,52.0,29.95,SW,225,0.0,-999.0,100,-99.99,,,0.00,weatherlink.com 1.10,2013-05-09 07:31:00,
2013-05-09 03:46:00,52.7,53.0,29.95,SW,225,0.0,-999.0,100,-99.99,,,0.00,weatherlink.com 1.10,2013-05-09 07:46:00,
2013-05-09 04:01:00,52.7,53.0,29.95,SW,225,0.0,-999.0,99,-99.99,,,0.00,weatherlink.com 1.10,2013-05-09 08:01:00,
2013-05-09 04:16:00,52.8,53.0,29.95,SW,225,0.0,-999.0,100,-99.99,,,0.00,weatherlink.com 1.10,2013-05-09 08:16:00,
2013-05-09 04:31:00,53.0,53.0,29.95,SW,225,0.0,-999.0,100,-99.99,,,0.00,weatherlink.com 1.10,2013-05-09 08:31:00,
2013-05-09 04:46:00,53.0,53.0,29.94,SW,225,0.0,-999.0,100,-99.99,,,0.00,weatherlink.com 1.10,2013-05-09 08:46:00,
2013-05-09 05:01:00,53.0,53.0,29.94,SW,225,0.0,-999.0,100,-99.99,,,0.00,weatherlink.com 1.10,2013-05-09 09:01:00,
2013-05-09 05:16:00,53.1,53.0,29.94,SW,225,0.0,-999.0,100,-99.99,,,0.00,weatherlink.com 1.10,2013-05-09 09:16:00,
2013-05-09 05:31:00,53.0,53.0,29.94,SW,225,0.0,-999.0,100,-99.99,,,0.00,weatherlink.com 1.10,2013-05-09 09:31:00,
2013-05-09 05:46:00,53.1,53.0,29.94,SW,225,0.0,-999.0,100,-99.99,,,0.00,weatherlink.com 1.10,2013-05-09 09:46:00,
2013-05-09 06:01:00,53.1,53.0,29.94,SW,225,0.0,-999.0,100,-99.99,,,0.00,weatherlink.com 1.10,2013-05-09 10:01:00,
2013-05-09 06:16:00,53.1,53.0,29.94,SW,225,0.0,-999.0,100,-99.99,,,0.00,weatherlink.com 1.10,2013-05-09 10:16:00,
2013-05-09 06:31:00,53.2,53.0,29.95,SW,225,0.0,-999.0,100,-99.99,,,0.00,weatherlink.com 1.10,2013-05-09 10:31:00,
2013-05-09 06:46:00,53.3,53.0,29.95,SW,225,0.0,-999.0,100,-99.99,,,0.00,weatherlink.com 1.10,2013-05-09 10:46:00,
2013-05-09 07:01:00,53.5,54.0,29.95,SW,225,0.0,-999.0,100,-99.99,,,0.00,weatherlink.com 1.10,2013-05-09 11:01:00,
2013-05-09 07:16:00,53.7,54.0,29.95,SW,225,0.0,-999.0,100,-99.99,,,0.00,weatherlink.com 1.10,2013-05-09 11:16:00,
2013-05-09 07:31:00,54.0,54.0,29.95,SW,225,0.0,-999.0,100,-99.99,,,0.00,weatherlink.com 1.10,2013-05-09 11:31:00,
2013-05-09 07:46:00,54.3,54.0,29.94,SW,225,0.0,-999.0,100,-99.99,,,0.00,weatherlink.com 1.10,2013-05-09 11:46:00,
2013-05-09 08:01:00,54.6,55.0,29.94,NNW,346,0.0,-999.0,100,-99.99,,,0.00,weatherlink.com 1.10,2013-05-09 12:01:00,
2013-05-09 08:16:00,54.9,55.0,29.94,NNW,346,0.0,-999.0,100,-99.99,,,0.00,weatherlink.com 1.10,2013-05-09 12:16:00,
2013-05-09 08:31:00,55.4,55.0,29.94,NNW,346,0.0,-999.0,100,-99.99,,,0.00,weatherlink.com 1.10,2013-05-09 12:31:00,
2013-05-09 08:46:00,55.9,56.0,29.94,NNW,346,0.0,-999.0,100,-99.99,,,0.00,weatherlink.com 1.10,2013-05-09 12:46:00,
2013-05-09 09:01:00,56.6,57.0,29.94,NNW,346,0.0,-999.0,100,-99.99,,,0.00,weatherlink.com 1.10,2013-05-09 13:01:00,
2013-05-09 09:16:00,56.9,57.0,29.93,NNW,346,0.0,-999.0,99,-99.99,,,0.00,weatherlink.com 1.10,2013-05-09 13:16:00,
2013-05-09 09:31:00,56.9,56.0,29.94,NNW,346,0.0,-999.0,98,-99.99,,,0.00,weatherlink.com 1.10,2013-05-09 13:31:00,
2013-05-09 09:46:00,57.0,57.0,29.94,NNW,346,0.0,-999.0,98,-99.99,,,0.00,weatherlink.com 1.10,2013-05-09 13:46:00,
2013-05-09 10:01:00,57.1,56.0,29.93,NNW,346,0.0,-999.0,97,-99.99,,,0.00,weatherlink.com 1.10,2013-05-09 14:01:00,
2013-05-09 10:16:00,58.0,57.0,29.93,NNW,346,0.0,-999.0,97,-99.99,,,0.00,weatherlink.com 1.10,2013-05-09 14:16:00,
2013-05-09 10:31:00,59.1,58.0,29.93,West,267,1.0,-999.0,96,-99.99,,,0.00,weatherlink.com 1.10,2013-05-09 14:31:00,
2013-05-09 10:46:00,59.9,59.0,29.92,West,267,0.0,-999.0,95,-99.99,,,0.00,weatherlink.com 1.10,2013-05-09 14:46:00,
2013-05-09 11:01:00,60.9,59.0,29.92,SSW,211,0.0,-999.0,93,-99.99,,,0.00,weatherlink.com 1.10,2013-05-09 15:01:00,
2013-05-09 11:16:00,61.3,59.0,29.92,SW,223,0.0,-999.0,91,-99.99,,,0.00,weatherlink.com 1.10,2013-05-09 15:16:00,
2013-05-09 11:31:00,61.6,59.0,29.92,SW,217,0.0,-999.0,90,-99.99,,,0.00,weatherlink.com 1.10,2013-05-09 15:31:00,
2013-05-09 11:46:00,61.5,59.0,29.92,SW,231,0.0,-999.0,90,-99.99,,,0.00,weatherlink.com 1.10,2013-05-09 15:46:00,
2013-05-09 12:01:00,61.5,59.0,29.92,SW,226,0.0,-999.0,92,-99.99,,,0.01,weatherlink.com 1.10,2013-05-09 16:01:00,
2013-05-09 12:16:00,60.7,59.0,29.92,SW,226,0.0,-999.0,93,-99.99,,,0.02,weatherlink.com 1.10,2013-05-09 16:16:00,
2013-05-09 12:31:00,60.8,59.0,29.92,SW,226,0.0,-999.0,94,-99.99,,,0.02,weatherlink.com 1.10,2013-05-09 16:31:00,
2013-05-09 12:46:00,60.8,59.0,29.91,SW,226,0.0,-999.0,94,-99.99,,,0.02,weatherlink.com 1.10,2013-05-09 16:46:00,
2013-05-09 13:01:00,60.8,59.0,29.91,SW,226,0.0,-999.0,93,-99.99,,,0.02,weatherlink.com 1.10,2013-05-09 17:01:00,
2013-05-09 13:16:00,60.8,59.0,29.91,SW,226,0.0,-999.0,92,-99.99,,,0.02,weatherlink.com 1.10,2013-05-09 17:16:00,
2013-05-09 13:46:00,60.2,58.0,29.91,West,273,2.0,-999.0,92,-99.99,,,0.02,weatherlink.com 1.10,2013-05-09 17:46:00,
2013-05-09 14:01:00,59.3,57.0,29.90,ESE,120,0.0,-999.0,92,-99.99,,,0.02,weatherlink.com 1.10,2013-05-09 18:01:00,
2013-05-09 14:32:00,58.6,58.0,29.89,ESE,120,0.0,-999.0,96,-99.99,,,0.03,weatherlink.com 1.10,2013-05-09 18:32:00,
2013-05-09 14:46:00,58.8,58.0,29.89,ESE,120,0.0,-999.0,96,-99.99,,,0.04,weatherlink.com 1.10,2013-05-09 18:46:00,
2013-05-09 15:01:00,58.9,58.0,29.89,ESE,120,0.0,-999.0,97,-99.99,,,0.04,weatherlink.com 1.10,2013-05-09 19:01:00,
2013-05-09 15:16:00,59.0,58.0,29.88,ESE,120,0.0,-999.0,96,-99.99,,,0.04,weatherlink.com 1.10,2013-05-09 19:16:00,
2013-05-09 15:31:00,59.1,58.0,29.87,ESE,120,0.0,-999.0,97,-99.99,,,0.06,weatherlink.com 1.10,2013-05-09 19:31:00,
2013-05-09 15:46:00,59.8,60.0,29.87,ESE,120,0.0,-999.0,99,-99.99,,,0.06,weatherlink.com 1.10,2013-05-09 19:46:00,
2013-05-09 16:01:00,60.5,59.0,29.86,SSE,149,0.0,-999.0,96,-99.99,,,0.06,weatherlink.com 1.10,2013-05-09 20:01:00,
2013-05-09 16:16:00,61.0,59.0,29.87,SE,125,0.0,-999.0,92,-99.99,,,0.06,weatherlink.com 1.10,2013-05-09 20:16:00,
2013-05-09 16:31:00,62.0,60.0,29.87,SE,128,0.0,-999.0,93,-99.99,,,0.06,weatherlink.com 1.10,2013-05-09 20:31:00,
2013-05-09 16:46:00,62.6,59.0,29.87,SE,126,0.0,-999.0,88,-99.99,,,0.06,weatherlink.com 1.10,2013-05-09 20:46:00,
2013-05-09 17:01:00,62.5,58.0,29.87,SE,126,0.0,-999.0,85,-99.99,,,0.06,weatherlink.com 1.10,2013-05-09 21:01:00,
2013-05-09 17:16:00,62.5,57.0,29.87,SE,126,0.0,-999.0,82,-99.99,,,0.06,weatherlink.com 1.10,2013-05-09 21:16:00,
2013-05-09 17:31:00,62.6,58.0,29.87,SE,126,0.0,-999.0,85,-99.99,,,0.06,weatherlink.com 1.10,2013-05-09 21:31:00,
2013-05-09 17:46:00,62.6,58.0,29.87,South,179,0.0,-999.0,85,-99.99,,,0.06,weatherlink.com 1.10,2013-05-09 21:46:00,
2013-05-09 18:01:00,62.9,57.0,29.87,East,84,0.0,-999.0,82,-99.99,,,0.06,weatherlink.com 1.10,2013-05-09 22:01:00,
2013-05-09 18:16:00,62.9,56.0,29.87,East,84,0.0,-999.0,77,-99.99,,,0.06,weatherlink.com 1.10,2013-05-09 22:16:00,
2013-05-09 18:31:00,63.1,57.0,29.87,East,84,0.0,-999.0,79,-99.99,,,0.06,weatherlink.com 1.10,2013-05-09 22:31:00,
2013-05-09 18:46:00,62.9,57.0,29.88,East,84,0.0,-999.0,80,-99.99,,,0.06,weatherlink.com 1.10,2013-05-09 22:46:00,
2013-05-09 19:01:00,62.5,57.0,29.88,East,84,0.0,-999.0,83,-99.99,,,0.06,weatherlink.com 1.10,2013-05-09 23:01:00,
2013-05-09 19:16:00,61.8,57.0,29.88,East,84,0.0,-999.0,85,-99.99,,,0.06,weatherlink.com 1.10,2013-05-09 23:16:00,
2013-05-09 19:31:00,60.9,57.0,29.89,East,84,0.0,-999.0,86,-99.99,,,0.07,weatherlink.com 1.10,2013-05-09 23:31:00,
2013-05-09 19:46:00,60.2,57.0,29.89,East,84,0.0,-999.0,89,-99.99,,,0.07,weatherlink.com 1.10,2013-05-09 23:46:00,
2013-05-09 20:01:00,59.3,56.0,29.89,East,84,0.0,-999.0,90,-99.99,,,0.07,weatherlink.com 1.10,2013-05-10 00:01:00,
2013-05-09 20:16:00,58.7,56.0,29.89,East,84,0.0,-999.0,92,-99.99,,,0.07,weatherlink.com 1.10,2013-05-10 00:16:00,
2013-05-09 20:31:00,58.0,56.0,29.90,East,84,0.0,-999.0,94,-99.99,,,0.07,weatherlink.com 1.10,2013-05-10 00:31:00,
2013-05-09 20:46:00,57.9,57.0,29.90,East,84,0.0,-999.0,95,-99.99,,,0.07,weatherlink.com 1.10,2013-05-10 00:46:00,
2013-05-09 21:01:00,57.8,56.0,29.90,East,84,0.0,-999.0,95,-99.99,,,0.07,weatherlink.com 1.10,2013-05-10 01:01:00,
2013-05-09 21:16:00,57.7,56.0,29.91,East,84,0.0,-999.0,95,-99.99,,,0.07,weatherlink.com 1.10,2013-05-10 01:16:00,
2013-05-09 21:31:00,57.3,56.0,29.92,East,84,0.0,-999.0,96,-99.99,,,0.07,weatherlink.com 1.10,2013-05-10 01:31:00,
2013-05-09 21:46:00,56.9,56.0,29.92,East,84,0.0,-999.0,96,-99.99,,,0.07,weatherlink.com 1.10,2013-05-10 01:46:00,
2013-05-09 22:01:00,56.4,55.0,29.92,East,84,0.0,-999.0,96,-99.99,,,0.07,weatherlink.com 1.10,2013-05-10 02:01:00,
2013-05-09 22:16:00,56.0,55.0,29.91,East,84,0.0,-999.0,96,-99.99,,,0.07,weatherlink.com 1.10,2013-05-10 02:16:00,
2013-05-09 22:31:00,55.5,54.0,29.92,East,84,0.0,-999.0,96,-99.99,,,0.07,weatherlink.com 1.10,2013-05-10 02:31:00,
2013-05-09 22:46:00,55.1,54.0,29.92,East,84,0.0,-999.0,97,-99.99,,,0.07,weatherlink.com 1.10,2013-05-10 02:46:00,
2013-05-09 23:01:00,54.6,54.0,29.92,East,84,0.0,-999.0,97,-99.99,,,0.07,weatherlink.com 1.10,2013-05-10 03:01:00,
2013-05-09 23:16:00,54.2,53.0,29.92,East,84,0.0,-999.0,97,-99.99,,,0.07,weatherlink.com 1.10,2013-05-10 03:16:00,
2013-05-09 23:31:00,53.8,53.0,29.92,East,84,0.0,-999.0,97,-99.99,,,0.07,weatherlink.com 1.10,2013-05-10 03:31:00,
2013-05-09 23:46:00,53.5,53.0,29.92,East,84,0.0,-999.0,97,-99.99,,,0.07,weatherlink.com 1.10,2013-05-10 03:46:00,